This is the latest recevied weather packets stored in our database for station/object N5SRF. If no packets are shown the sender has not sent any weather packets the latest 10 day(s).
| Time | Temp. | Humidity | Pressure | Rain* | Wind** | Luminosity | Snow |
|---|---|---|---|---|---|---|---|
| 1777536236 | 20.56° C | 99% | 1015.1 hPa | 0 mm | - | 0 W/m² | - |
| 1777535931 | 20.56° C | 99% | 1015.1 hPa | 0 mm | - | 0 W/m² | - |
| 1777535628 | 20.56° C | 99% | 1014.9 hPa | 0 mm | - | 0 W/m² | - |
| 1777535325 | 20.56° C | 99% | 1014.8 hPa | 0 mm | - | 0 W/m² | - |
| 1777535023 | 20.56° C | 99% | 1014.4 hPa | 0 mm | - | 0 W/m² | - |
| 1777534719 | 20.56° C | 99% | 1014.6 hPa | 0 mm | - | 0 W/m² | - |
| 1777534416 | 20.56° C | 99% | 1014.6 hPa | 0 mm | - | 0 W/m² | - |
| 1777534114 | 20.56° C | 99% | 1014.8 hPa | 1.78 mm | - | 0 W/m² | - |
| 1777533811 | 20.56° C | 99% | 1014.4 hPa | 1.78 mm | - | 0 W/m² | - |
| 1777533508 | 20.56° C | 99% | 1014.8 hPa | 0 mm | - | 0 W/m² | - |
| 1777533203 | 20.56° C | 99% | 1014.9 hPa | 1.27 mm | - | 0 W/m² | - |
| 1777532900 | 20.56° C | 99% | 1015.2 hPa | 3.05 mm | - | 0 W/m² | - |
| 1777532597 | 20.56° C | 99% | 1015 hPa | 1.78 mm | - | 0 W/m² | - |
| 1777532294 | 20.56° C | 99% | 1015.3 hPa | 1.78 mm | - | 0 W/m² | - |
| 1777531990 | 20.56° C | 99% | 1015.5 hPa | 0 mm | - | 0 W/m² | - |
| 1777531687 | 20.56° C | 99% | 1015.4 hPa | 0 mm | - | 0 W/m² | - |
| 1777531383 | 20.56° C | 99% | 1015.1 hPa | 1.78 mm | - | 0 W/m² | - |
| 1777531081 | 20.56° C | 99% | 1015.2 hPa | 1.78 mm | - | 0 W/m² | - |
| 1777530778 | 20.56° C | 99% | 1015.1 hPa | 0 mm | - | 0 W/m² | - |
| 1777530476 | 20.56° C | 99% | 1015.2 hPa | 0 mm | - | 0 W/m² | - |
| 1777530171 | 20.56° C | 99% | 1015.1 hPa | 0 mm | - | 0 W/m² | - |
| 1777529870 | 20.56° C | 99% | 1015 hPa | 0 mm | - | 0 W/m² | - |
| 1777529570 | 20.56° C | 99% | 1015.3 hPa | 0 mm | - | 0 W/m² | - |
| 1777529268 | 21.11° C | 99% | 1015.2 hPa | 0 mm | - | 0 W/m² | - |
| 1777528964 | 21.11° C | 99% | 1015.3 hPa | 0 mm | - | 0 W/m² | - |
* Rain latest hour (hover to see other rain measurements)
** Current wind speed in m/s (hover to see current wind gust speed)